Location: ????????
(55.6333°N, 37.7000°E)
Time: 07:46:33
(UTC+00:00)

CZ-2C R/B - Pass Details

Date: 19 May 2025
Orbit: 702 x 902 km, 98.2° (Epoch: 23 June)

Event Time Altitude Azimuth Distance (km) Brightness Sun altitude
Rises 23:19:38 0° 14° (NNE) 3,514 8.2 -10.6°
Reaches altitude 10° 23:22:04 10° 11° (N) 2,583 7.1 -10.5°
Maximum altitude 23:27:46 61° 293° (WNW) 1,019 3.6 -10.1°
Enters shadow 23:33:02 12° 215° (SW) 2,415 4.9 -9.7°
